Home   Weather   Hockenheim   Past weeks

Flag for Germany Past Weather in Hockenheim, Baden-Württemberg, Germany — Yesterday and Last 2 Weeks

Now
37 °F

Clear.


Feels Like: 34 °F
Forecast: 40 / 55 °F
Wind: 5 mph from Northeast

Location: Karlsruhe - Baden Wurttemberg

Current Time: Apr 24, 2017 at 3:27:54 am

Latest Report: Apr 24, 2017 at 1:20 am


Visibility: 10 mi

Pressure: 30.18 "Hg

Humidity: 75%

Dew Point: 30 °F

Location of HockenheimLocation

Past Weather in Hockenheim — Graph

°F

Hockenheim Temperature Yesterday

Maximum temperature yesterday: 55 °F (at 4:20 pm)
Minimum temperature yesterday: 39 °F (at 5:20 am)
Average temperature yesterday: 47 °F

High & Low Weather Summary for the Past Weeks

 TemperatureHumidityPressure
High77 °F (Apr 10, 2:20 pm)100% (Apr 9, 4:50 am)30.60 "Hg (Apr 9, 4:50 am)
Low27 °F (Apr 20, 5:50 am)25% (Apr 21, 3:20 pm)29.95 "Hg (Apr 12, 6:50 pm)
Average50 °F64%30.20 "Hg
* Reported Apr 9 1:20 am — Apr 24 1:20 am, Hockenheim, Weather by CustomWeather, © 2017

Note: Actual official high and low records may vary slightly from our data, if they occured in-between our weather recording intervals... More about our weather records

Advertising

Hockenheim Weather History for the Previous 24 Hours

Scroll right to see more
 ConditionsComfort  
Time TempWeatherWind HumidityBarometerVisibility
1:20 am
Mon, Apr 24
37 °FClear.5 mph75%30.18 "Hg10 mi
12:50 am39 °FClear.6 mph70%30.21 "Hg10 mi
11:50 pm
Sun, Apr 23
41 °FClear.3 mph61%30.21 "Hg10 mi
11:20 pm41 °FClear.5 mph66%30.21 "Hg10 mi
10:50 pm41 °FClear.5 mph66%30.24 "Hg10 mi
10:20 pm43 °FClear.5 mph61%30.24 "Hg10 mi
9:50 pm45 °FClear.6 mph53%30.24 "Hg10 mi
9:20 pm45 °FClear.8 mph53%30.21 "Hg10 mi
8:50 pm46 °FClear.9 mph50%30.21 "Hg10 mi
8:20 pm48 °FSunny.9 mph46%30.21 "Hg10 mi
7:50 pm52 °FSunny.9 mph41%30.21 "Hg10 mi
7:20 pm54 °FSunny.10 mph35%30.21 "Hg10 mi
6:50 pm54 °FPassing clouds.9 mph38%30.21 "HgN/A
6:20 pm54 °FPassing clouds.9 mph41%30.21 "HgN/A
5:50 pm54 °FPassing clouds.7 mph38%30.21 "HgN/A
5:20 pm54 °FPassing clouds.7 mph38%30.21 "HgN/A
4:50 pm54 °FPassing clouds.8 mph38%30.21 "HgN/A
4:20 pm55 °FPassing clouds.6 mph36%30.24 "HgN/A
3:50 pm54 °FSunny.3 mph38%30.24 "Hg10 mi
3:20 pm54 °FSunny.6 mph41%30.24 "Hg10 mi
2:50 pm54 °FSunny.3 mph38%30.24 "Hg10 mi
2:20 pm52 °FPassing clouds.7 mph47%30.27 "HgN/A
1:50 pm52 °FSunny.2 mph41%30.27 "Hg10 mi
1:20 pm50 °FPartly sunny.6 mph47%30.27 "HgN/A
12:50 pm50 °FPartly sunny.3 mph47%30.27 "HgN/A
12:20 pm48 °FPartly sunny.3 mph50%30.30 "HgN/A
11:50 am48 °FScattered clouds.3 mph50%30.30 "HgN/A
11:20 am46 °FScattered clouds.5 mph53%30.30 "HgN/A
10:50 am46 °FScattered clouds.5 mph57%30.30 "HgN/A
10:20 am46 °FScattered clouds.6 mph57%30.30 "HgN/A
9:50 am46 °FScattered clouds.5 mph62%30.30 "HgN/A
9:20 am45 °FSunny.6 mph71%30.30 "Hg10 mi
8:50 am45 °FSunny.5 mph71%30.30 "Hg10 mi
8:20 am43 °FSunny.3 mph81%30.30 "Hg10 mi
7:50 am41 °FSunny.3 mph81%30.27 "Hg10 mi
7:20 am39 °FSunny.1 mph93%30.27 "Hg10 mi
6:50 am39 °FSunny.2 mph93%30.27 "Hg10 mi
6:20 am39 °FClear.1 mph93%30.27 "Hg10 mi
5:50 am39 °FPassing clouds.No wind100%30.24 "Hg6 mi
5:20 am39 °FPartly cloudy.No wind100%30.24 "Hg6 mi
4:50 am41 °FPassing clouds.2 mph93%30.24 "HgN/A
Weather by CustomWeather, © 2017

See weather overviewHow to use our weather pages